Location: Gälforsberget
(66.6500°N, 22.4167°E)
Time: 06:22:50
(UTC+00:00)

Cosmos 2151 Rocket - Pass Details

Date: 11 April 2026
Orbit: 611 x 636 km, 82.5° (Epoch: 10 May)

Event Time Altitude Azimuth Distance (km) Brightness Sun altitude
Exits shadow 22:09:47 24° 161° (SSE) 1,293 4.6 -14.7°
Maximum altitude 22:12:08 49° 98° (E) 804 4.0 -14.7°
Drops below altitude 10° 22:16:24 10° 23° (NNE) 1,997 7.2 -14.7°
Sets 22:18:41 0° 19° (NNE) 2,903 8.4 -14.7°
